STARLINK-35426 (66441 NORAD) Tracking and Keplerian Element Data

This shows tracking and keplerian element data for the satellite.

Feedback or suggestion? Click here.




ElementValue
Catalog66441
NameSTARLINK-35426
Epoch Orbit721
Epoch Day353.51433764
Epoch Year2025
RAAN8.5043
Inclination43.001
Eccentricity0.0001245
Argument of Perigee257.4748
Mean Anonmoly102.5969
Mean Motion15.40736816
Decay Rate0.00032225
L11 66441U 25259V 25353.51433764 .00032225 00000+0 77451-3 0 9995
L22 66441 43.0010 8.5043 0001245 257.4748 102.5969 15.40736816 7213



Live tracking and technical data element details for STARLINK-35426 (NORAD 66441). STARLINK-35426 can be tracked NOW for your location showing map with azimuth and elevation plus other details from your city location.







IsCatalogInMostPopularTable: catalog: 66441, numindb: 9
Update: records affected: 1



GetName: 66441 STARLINK-35426

Hit Count: updated at: Sat, 11 Apr 2026 20:06:18 GMT